Location: Ciserano
(45.5833°N, 9.6000°E)
Time: 23:24:48
(UTC+00:00)

FALCON 9 DEB - Pass Details

Date: 19 June 2021
Orbit: 364 x 377 km, 53.0° (Epoch: 26 July)

Event Time Altitude Azimuth Distance (km) Brightness Sun altitude
Rises 20:07:35 0° 208° (SSW) 2,242 6.6 -7.9°
Reaches altitude 10° 20:09:49 10° 194° (SSW) 1,397 5.4 -8.2°
Maximum altitude 20:12:27 25° 137° (SE) 820 3.9 -8.5°
Drops below altitude 10° 20:15:06 10° 79° (E) 1,410 5.4 -8.8°
Sets 20:17:22 0° 66° (ENE) 2,268 6.6 -9.1°
